Simultaneous Nadir Overpasses (SNOs) Predictions

Prediction of SNOs between LANDSAT-8 and METOP-A Satellite Orbit:

Table of predicted SNOs for the next 14.0 days since TLE Epoch: 3/8/2014
Index Date (LANDSAT-8) Time (LANDSAT-8) Lat,Lon (LANDSAT-8) SZA (LANDSAT-8 ) Date (METOP-A) Time (METOP-A) Lat,Lon (METOP-A) SZA (METOP-A ) Distance(km) Time Diff (sec)
1 03/10/2014 17:43:48 81.17, -45.78 86.89 03/10/2014 17:43:21 81.17, -45.90 86.87 2.14 27
2 03/10/2014 18:33:14 -81.19, 122.20 93.08 03/10/2014 18:34:00 -81.20, 122.18 93.06 0.57 46
3 03/13/2014 13:18:01 81.18, 20.82 85.83 03/13/2014 13:17:40 81.18, 20.83 85.83 0.31 21
4 03/13/2014 14:07:26 -81.20,-171.18 94.14 03/13/2014 14:08:18 -81.21,-171.05 94.10 2.32 52
5 03/16/2014 08:52:12 81.20, 87.49 84.78 03/16/2014 08:51:58 81.19, 87.49 84.77 0.54 14
6 03/16/2014 09:41:39 -81.20,-104.86 95.24 03/16/2014 09:42:38 -81.20,-104.74 95.20 2.23 59
7 03/19/2014 04:26:24 81.19, 153.88 83.68 03/19/2014 04:26:18 81.18, 153.70 83.65 3.18 6
8 03/19/2014 05:15:50 -81.22, -38.09 96.28 03/19/2014 05:16:57 -81.21, -38.12 96.26 0.86 67
9 03/21/2014 23:11:10 -81.17, 52.38 97.45 03/21/2014 23:09:58 -81.17, 52.43 97.47 0.82 72
10 03/22/2014 00:00:35 81.19,-139.67 82.59 03/22/2014 00:00:37 81.19,-139.79 82.58 2.23 2




NCC Satellite Simultaneous Nadir Overpasses (SNOs) Prediction Service
